Hourly Weather La Orotava

Today, 12 August, Wednesday

Time Temperature Precipitation Wind Pressure Humidity
00:00 +19°C° 0 mm 6 mps 708 mmHg 73%
01:00 +19°C° 0 mm 6 mps 708 mmHg 73%
02:00 +19°C° 0 mm 6 mps 707 mmHg 73%
03:00 +19°C° 0 mm 6 mps 707 mmHg 70%
04:00 +19°C° 0 mm 6 mps 707 mmHg 66%
05:00 +19°C° 0 mm 6 mps 707 mmHg 63%
06:00 +21°C° 0 mm 6 mps 708 mmHg 59%
07:00 +22°C° 0 mm 6 mps 708 mmHg 55%
08:00 +24°C° 0 mm 6 mps 708 mmHg 51%
09:00 +26°C° 0 mm 6 mps 708 mmHg 49%
10:00 +27°C° 0 mm 7 mps 709 mmHg 47%
11:00 +28°C° 0 mm 7 mps 709 mmHg 45%
12:00 +28°C° 0 mm 7 mps 709 mmHg 48%
13:00 +28°C° 0 mm 7 mps 709 mmHg 52%
14:00 +28°C° 0 mm 7 mps 708 mmHg 55%
15:00 +27°C° 0 mm 7 mps 708 mmHg 58%
16:00 +26°C° 0 mm 7 mps 708 mmHg 62%
17:00 +26°C° 0 mm 6 mps 708 mmHg 65%
18:00 +23°C° 0 mm 6 mps 708 mmHg 68%
19:00 +22°C° 0 mm 6 mps 708 mmHg 70%
20:00 +21°C° 0 mm 6 mps 708 mmHg 73%
21:00 +20°C° 0 mm 6 mps 708 mmHg 69%
22:00 +20°C° 0 mm 6 mps 708 mmHg 64%
23:00 +19°C° 0 mm 6 mps 708 mmHg 60%

Tomorrow, 13 August, Thursday

Time Temperature Precipitation Wind Pressure Humidity
00:00 +20°C° 0 mm 6 mps 708 mmHg 59%
01:00 +20°C° 0 mm 6 mps 708 mmHg 57%
02:00 +20°C° 0 mm 6 mps 707 mmHg 56%
03:00 +20°C° 0 mm 6 mps 707 mmHg 56%
04:00 +20°C° 0 mm 6 mps 707 mmHg 55%
05:00 +20°C° 0 mm 6 mps 707 mmHg 55%
06:00 +21°C° 0 mm 6 mps 708 mmHg 55%
07:00 +22°C° 0 mm 6 mps 708 mmHg 55%
08:00 +24°C° 0 mm 6 mps 709 mmHg 55%
09:00 +26°C° 0 mm 6 mps 709 mmHg 51%
10:00 +28°C° 0 mm 7 mps 709 mmHg 47%
11:00 +29°C° 0 mm 7 mps 710 mmHg 44%
12:00 +29°C° 0 mm 7 mps 709 mmHg 46%
13:00 +29°C° 0 mm 7 mps 709 mmHg 48%
14:00 +29°C° 0 mm 7 mps 709 mmHg 49%
15:00 +28°C° 0 mm 7 mps 709 mmHg 51%
16:00 +28°C° 0 mm 6 mps 709 mmHg 53%
17:00 +28°C° 0 mm 6 mps 708 mmHg 55%
18:00 +26°C° 0 mm 6 mps 709 mmHg 60%
19:00 +24°C° 0 mm 6 mps 709 mmHg 66%
20:00 +22°C° 0 mm 5 mps 709 mmHg 72%
21:00 +22°C° 0 mm 6 mps 709 mmHg 69%
22:00 +21°C° 0 mm 6 mps 709 mmHg 66%
23:00 +21°C° 0 mm 6 mps 709 mmHg 62%

Day after tomorrow, 14 August, Friday

Time Temperature Precipitation Wind Pressure Humidity
00:00 +21°C° 0 mm 6 mps 709 mmHg 64%
01:00 +20°C° 0 mm 6 mps 708 mmHg 65%
02:00 +20°C° 0 mm 6 mps 708 mmHg 66%
03:00 +20°C° 0 mm 6 mps 708 mmHg 66%
04:00 +20°C° 0 mm 6 mps 708 mmHg 66%
05:00 +20°C° 0 mm 6 mps 708 mmHg 66%
06:00 +21°C° 0 mm 6 mps 708 mmHg 63%
07:00 +22°C° 0 mm 5 mps 709 mmHg 61%
08:00 +25°C° 0 mm 5 mps 709 mmHg 58%
09:00 +26°C° 0 mm 6 mps 709 mmHg 57%
10:00 +27°C° 0 mm 6 mps 709 mmHg 55%
11:00 +28°C° 0 mm 6 mps 710 mmHg 53%
12:00 +28°C° 0 mm 6 mps 709 mmHg 51%
13:00 +29°C° 0 mm 6 mps 709 mmHg 50%
14:00 +29°C° 0 mm 6 mps 709 mmHg 49%
15:00 +29°C° 0 mm 6 mps 709 mmHg 49%
16:00 +28°C° 0 mm 5 mps 709 mmHg 50%
17:00 +28°C° 0 mm 5 mps 708 mmHg 50%
18:00 +26°C° 0 mm 5 mps 709 mmHg 51%
19:00 +24°C° 0 mm 6 mps 709 mmHg 51%
20:00 +23°C° 0 mm 6 mps 709 mmHg 51%
21:00 +22°C° 0 mm 6 mps 709 mmHg 55%
22:00 +22°C° 0 mm 6 mps 709 mmHg 59%
23:00 +21°C° 0 mm 6 mps 709 mmHg 63%

15 August, Saturday

Time Temperature Precipitation Wind Pressure Humidity
00:00 +21°C° 0 mm 6 mps 709 mmHg 63%
01:00 +20°C° 0 mm 6 mps 708 mmHg 62%
02:00 +20°C° 0 mm 6 mps 708 mmHg 62%
03:00 +20°C° 0 mm 6 mps 708 mmHg 63%
04:00 +20°C° 0 mm 6 mps 708 mmHg 63%
05:00 +20°C° 0 mm 6 mps 708 mmHg 64%
06:00 +21°C° 0 mm 6 mps 708 mmHg 59%
07:00 +23°C° 0 mm 6 mps 708 mmHg 54%
08:00 +26°C° 0 mm 6 mps 709 mmHg 49%
09:00 +26°C° 0 mm 6 mps 709 mmHg 50%
10:00 +27°C° 0 mm 6 mps 709 mmHg 50%
11:00 +27°C° 0 mm 7 mps 709 mmHg 50%
12:00 +28°C° 0 mm 6 mps 709 mmHg 50%
13:00 +29°C° 0 mm 6 mps 709 mmHg 49%
14:00 +29°C° 0 mm 6 mps 709 mmHg 49%
15:00 +28°C° 0 mm 6 mps 708 mmHg 53%
16:00 +27°C° 0 mm 6 mps 708 mmHg 58%
17:00 +26°C° 0 mm 6 mps 708 mmHg 62%
18:00 +24°C° 0 mm 6 mps 708 mmHg 65%
19:00 +23°C° 0 mm 6 mps 708 mmHg 67%
20:00 +21°C° 0 mm 6 mps 709 mmHg 70%
21:00 +21°C° 0 mm 6 mps 708 mmHg 70%
22:00 +21°C° 0 mm 6 mps 708 mmHg 70%
23:00 +21°C° 0 mm 7 mps 708 mmHg 71%

16 August, Sunday

Time Temperature Precipitation Wind Pressure Humidity
00:00 +21°C° 0 mm 7 mps 708 mmHg 70%
01:00 +21°C° 0 mm 7 mps 707 mmHg 70%
02:00 +20°C° 0 mm 7 mps 707 mmHg 69%
03:00 +20°C° 0 mm 7 mps 707 mmHg 70%
04:00 +20°C° 0 mm 6 mps 707 mmHg 71%
05:00 +20°C° 0 mm 6 mps 707 mmHg 72%
06:00 +21°C° 0 mm 6 mps 708 mmHg 67%
07:00 +22°C° 0 mm 7 mps 708 mmHg 62%
08:00 +23°C° 0 mm 7 mps 708 mmHg 57%
09:00 +26°C° 0 mm 7 mps 709 mmHg 53%
10:00 +27°C° 0 mm 7 mps 709 mmHg 48%
11:00 +29°C° 0 mm 7 mps 709 mmHg 43%
12:00 +29°C° 0 mm 7 mps 709 mmHg 44%
13:00 +29°C° 0 mm 7 mps 709 mmHg 44%
14:00 +29°C° 0 mm 7 mps 708 mmHg 45%
15:00 +28°C° 0 mm 7 mps 708 mmHg 46%
16:00 +27°C° 0 mm 7 mps 708 mmHg 48%
17:00 +26°C° 0 mm 6 mps 708 mmHg 49%
18:00 +24°C° 0 mm 6 mps 708 mmHg 54%
19:00 +22°C° 0 mm 7 mps 708 mmHg 58%
20:00 +21°C° 0 mm 7 mps 708 mmHg 62%
21:00 +21°C° 0 mm 7 mps 708 mmHg 59%
22:00 +21°C° 0 mm 6 mps 709 mmHg 57%
23:00 +21°C° 0 mm 6 mps 709 mmHg 55%

17 August, Monday

Time Temperature Precipitation Wind Pressure Humidity
00:00 +20°C° 0 mm 6 mps 708 mmHg 54%
01:00 +20°C° 0 mm 6 mps 708 mmHg 54%
02:00 +20°C° 0 mm 6 mps 707 mmHg 53%
03:00 +20°C° 0 mm 6 mps 707 mmHg 55%
04:00 +20°C° 0 mm 6 mps 707 mmHg 56%
05:00 +19°C° 0 mm 6 mps 707 mmHg 58%
06:00 +21°C° 0 mm 6 mps 708 mmHg 51%
07:00 +23°C° 0 mm 6 mps 708 mmHg 45%
08:00 +26°C° 0 mm 6 mps 709 mmHg 39%
09:00 +27°C° 0 mm 6 mps 709 mmHg 37%
10:00 +28°C° 0 mm 6 mps 709 mmHg 35%
11:00 +29°C° 0 mm 6 mps 710 mmHg 33%
12:00 +30°C° 0 mm 6 mps 709 mmHg 33%
13:00 +30°C° 0 mm 6 mps 709 mmHg 33%
14:00 +30°C° 0 mm 6 mps 709 mmHg 33%
15:00 +29°C° 0 mm 6 mps 708 mmHg 37%
16:00 +27°C° 0 mm 6 mps 708 mmHg 42%
17:00 +26°C° 0 mm 6 mps 708 mmHg 46%
18:00 +25°C° 0 mm 5 mps 708 mmHg 50%
19:00 +23°C° 0 mm 5 mps 708 mmHg 54%
20:00 +21°C° 0 mm 5 mps 708 mmHg 58%
21:00 +21°C° 0 mm 5 mps 708 mmHg 60%
22:00 +21°C° 0 mm 5 mps 709 mmHg 62%
23:00 +21°C° 0 mm 5 mps 709 mmHg 65%
Show more